Regional Weather Roundup
Issued by NWS Northern Indiana

Home | Current Version | Previous Version | Graphics & Text | Print | Product List | Glossary On
Versions: 1 2 3 4 5 6 7 8 9 10 11 12 13 14 15 16 17 18 19 20 21 22 23 24 25 26 27 28 29 30 31 32 33 34 35 36 37 38 39 40 41 42 43 44 45 46 47 48 49 50
000
ASUS43 KIWX 260000
RWRIWX

KIWX WEATHER ROUNDUP
NATIONAL WEATHER SERVICE NORTHERN INDIANA
800 PM EDT SAT APR 25 2015

NOTE: "FAIR" INDICATES FEW OR NO CLOUDS BELOW 12,000 FEET WITH NO
SIGNIFICANT WEATHER AND/OR OBSTRUCTIONS TO VISIBILITY.

* THESE STATIONS ARE NOT UNDER NWS QUALITY CONTROL. THEY ALSO MAY NOT
  REPORT WEATHER SUCH AS PRECIPITATION OR FOG.

INZ001>027-260100-
NORTHERN INDIANA

CITY           SKY/WX    TMP DP  RH WIND       PRES   REMARKS
GARY*          LGT RAIN  45  39  81 NE9       29.80R
KNOX*          CLOUDY    45  32  61 NE9       29.76R
SOUTH BEND     CLOUDY    47  37  68 NE7       29.79R
6HR MIN TEMP:  46; 6HR MAX TEMP:  48; 6HR PCP:  0.16;

GOSHEN         LGT RAIN  44  36  73 E13G18    29.77R
6HR MIN TEMP:  44; 6HR MAX TEMP:  47; 6HR PCP:  0.12;

WARSAW*        LGT RAIN  43  41  93 NE7       29.77R
ANGOLA*        CLOUDY    43  30  61 E9        29.74F
FORT WAYNE     LGT RAIN  42  39  89 E12       29.76R
6HR MIN TEMP:  42; 6HR MAX TEMP:  46; 6HR PCP:  0.36;


$$
INZ028>050-260100-
CENTRAL INDIANA

CITY           SKY/WX    TMP DP  RH WIND       PRES   REMARKS
LAFAYETTE      CLOUDY    46  41  82 NE16G24   29.69R
6HR MIN TEMP:  44; 6HR MAX TEMP:  46; 6HR PCP:  0.21;

KOKOMO*        CLOUDY    45  39  81 E17       29.71R
6HR MIN TEMP:  43; 6HR MAX TEMP:  46; 6HR PCP:  0.20;

MUNCIE*        CLOUDY    45  41  86 E15       29.68R
6HR MIN TEMP:  42; 6HR MAX TEMP:  45; 6HR PCP:  0.48;

INDIANAPOLIS   LGT RAIN  47  42  83 E12       29.62R
6HR MIN TEMP:  45; 6HR MAX TEMP:  47; 6HR PCP:  0.16;


$$
MIZ043>046-050>051-056>058-064>065-071>073-077>080-260100-
SOUTHWEST LOWER MICHIGAN

CITY           SKY/WX    TMP DP  RH WIND       PRES   REMARKS
BATTLE CREEK   MOCLDY    51  31  46 E6        29.77S
6HR MIN TEMP:  47; 6HR MAX TEMP:  51;

BENTON HARBOR  CLOUDY    48  39  71 E5        29.79R
6HR MIN TEMP:  47; 6HR MAX TEMP:  49; 6HR PCP:  0.03;

COLDWATER*     CLOUDY    46  29  52 E5        29.76S
6HR MIN TEMP:  46; 6HR MAX TEMP:  47;

HILLSDALE*     CLOUDY    47  32  56 E7        29.75F
6HR MIN TEMP:  46; 6HR MAX TEMP:  47;

HOLLAND        MOCLDY    55  29  36 NE8       29.79R
6HR MIN TEMP:  51; 6HR MAX TEMP:  57;

GRAND RAPIDS   MOCLDY    49  27  42 NE18      29.81R
6HR MIN TEMP:  49; 6HR MAX TEMP:  57;

KALAMAZOO      CLOUDY    50  34  54 E3        29.78R
6HR MIN TEMP:  47; 6HR MAX TEMP:  51;

STURGIS*       CLOUDY    45  30  57 CALM      29.76R
THREE RIVERS*  CLOUDY    47  32  55 E8        29.77R

$$
OHZ001>008-015>018-024>025-260100-
NORTHWEST OHIO

CITY           SKY/WX    TMP DP  RH WIND       PRES   REMARKS
DEFIANCE       CLOUDY    44  29  55 E10       29.75S
6HR MIN TEMP:  44; 6HR MAX TEMP:  49; 6HR PCP:  0.07;

FINDLAY        LGT RAIN  42  31  64 NE14      29.73F
6HR MIN TEMP:  41; 6HR MAX TEMP:  52; 6HR PCP:  0.15;

TOLEDO EXPRESS CLOUDY    44  26  49 NE14      29.77F
6HR MIN TEMP:  44; 6HR MAX TEMP:  47;

TOLEDO METCALF CLOUDY    44  24  45 NE12      29.79F
6HR MIN TEMP:  44; 6HR MAX TEMP:  48;

LIMA           CLOUDY    40  37  89 NE15      29.71F
6HR MIN TEMP:  40; 6HR MAX TEMP:  49; 6HR PCP:  0.35;


$$
AND FOR LAKE MICHIGAN COASTAL AND OPEN LAKE BUOY OBSERVATIONS

STATION/POSITION TEMP    WIND        PRES    VSBY  WAVE
                 AIR SEA DIR/SP/G                  HT/PER
                 (F)     (DEG/KT/KT) (MB)    (MI)  (FT/S)
CALUMET HARBOR    44      10/  8/ 12   N/A
MICHIGAN CITY     47      40/ 11/ 13   N/A
BURNS HARBOR      43      20/ 11/ 14 1009.5R
SAINT JOSEPH      50      30/  6/ 14 1008.8R
MICHIGAN CITY     42 45   30/  6/  8   N/A           2/ 3

$$
&&


USA.gov is the U.S. government's official web portal to all federal, state and local government web resources and services.